Weather History for PHLI - December, 2013

Change the Weather History Date:

Monday, December 16, 2013

  Actual Average Record
Temperature  
Mean Temperature 71 °F 73 °F  
Max Temperature 78 °F 79 °F 85 °F (1979)
Min Temperature 64 °F 68 °F 57 °F (1983)
Degree Days  
Heating Degree Days 0 0  
Month to date heating degree days 0 0  
Since 1 July heating degree days 0 0  
Cooling Degree Days 6 8  
Month to date cooling degree days 153 139  
Year to date cooling degree days 3578 3830  
Growing Degree Days 20 (Base 50)    
Moisture  
Dew Point 65 °F    
Average Humidity 81    
Maximum Humidity 93    
Minimum Humidity 69    
Precipitation  
Precipitation T in 0.18 in 3.42 in (1951)
Month to date precipitation 5.04 2.63  
Year to date precipitation 36.47 34.48  
Snow  
Snow 0.00 in - - ()
Month to date snowfall 0.0  
Since 1 July snowfall 0.0  
Snow Depth 0.00 in    
Sea Level Pressure  
Sea Level Pressure 29.97 in    
Wind  
Wind Speed 6 mph (NW)    
Max Wind Speed 12 mph    
Max Gust Speed 17 mph    
Visibility 10 miles    
Events Rain    
T = Trace of Precipitation, MM = Missing Value Source: NWS Daily Summary

Daily Weather History Graph

Daily Weather History Graph

Search for Another Location

Airport or City:

Trip Planner

Search our weather history database for the weather conditions in past years. The results will help you decide how hot, cold, wet, or windy it might be!

Date:

Astronomy

Dec. 16, 2013 Rise Set
Actual Time 7:09 AM HST 5:57 PM HST
Civil Twilight 6:44 AM HST 6:21 PM HST
Nautical Twilight 6:17 AM HST 6:49 PM HST
Astronomical Twilight 5:49 AM HST 7:16 PM HST
Moon 5:50 PM HST (12/16) 6:33 AM HST (12/16)
Length of Visible Light 11h 36m
Length of Day
10h 47m
Full, 100% of the Moon is Illuminated
Dec 16
Full
Dec 16
Full
Dec 25
Last Quarter
Jan 1
New
Jan 7
First Quarter

Hourly Weather History & Observations

Time (HST) Temp. Dew Point Humidity Pressure Visibility Wind Dir Wind Speed Gust Speed Precip Events Conditions
12:53 AM 66.0 °F 64.0 °F 93% 29.93 in 10.0 mi WNW 6.9 mph - N/A   Scattered Clouds
1:38 AM 64.4 °F 62.6 °F 94% 29.94 in 10.0 mi West 6.9 mph - N/A   Partly Cloudy
1:53 AM 64.9 °F 63.0 °F 93% 29.93 in 10.0 mi West 6.9 mph - N/A   Clear
2:53 AM 64.9 °F 63.0 °F 93% 29.93 in 10.0 mi WSW 4.6 mph - N/A   Clear
3:14 AM 64.4 °F 62.6 °F 94% 29.93 in 10.0 mi West 5.8 mph - N/A   Partly Cloudy
3:53 AM 64.9 °F 63.0 °F 93% 29.94 in 10.0 mi WSW 5.8 mph - N/A   Clear
4:53 AM 64.9 °F 63.0 °F 93% 29.94 in 10.0 mi West 6.9 mph - N/A   Clear
5:53 AM 64.0 °F 62.1 °F 93% 29.96 in 10.0 mi West 8.1 mph - N/A   Partly Cloudy
6:53 AM 64.9 °F 63.0 °F 93% 29.96 in 10.0 mi West 6.9 mph - N/A   Scattered Clouds
7:53 AM 64.9 °F 63.0 °F 93% 29.98 in 10.0 mi West 4.6 mph - N/A   Clear
8:00 AM 66.2 °F 64.4 °F 94% 29.98 in 10.0 mi WNW 4.6 mph - N/A   Scattered Clouds
8:53 AM 73.9 °F 66.0 °F 76% 29.99 in 10.0 mi NNE 3.5 mph - N/A   Clear
9:53 AM 75.0 °F 66.9 °F 76% 30.00 in 10.0 mi East 4.6 mph - N/A   Clear
10:53 AM 75.9 °F 69.1 °F 79% 30.00 in 10.0 mi ENE 6.9 mph - N/A   Partly Cloudy
11:53 AM 77.0 °F 69.1 °F 76% 29.98 in 10.0 mi East 5.8 mph - N/A   Clear
12:53 PM 77.0 °F 69.1 °F 76% 29.95 in 10.0 mi East 5.8 mph - N/A   Clear
1:53 PM 75.9 °F 68.0 °F 76% 29.93 in 10.0 mi ENE 6.9 mph - N/A   Scattered Clouds
2:53 PM 77.0 °F 66.9 °F 71% 29.93 in 10.0 mi NE 6.9 mph - N/A   Overcast
3:53 PM 75.0 °F 66.9 °F 76% 29.93 in 10.0 mi NE 4.6 mph - 0.00 in Rain Light Rain
4:53 PM 75.9 °F 66.9 °F 74% 29.93 in 10.0 mi NE 6.9 mph - 0.00 in   Mostly Cloudy
5:53 PM 73.0 °F 66.0 °F 79% 29.96 in 10.0 mi NE 9.2 mph - N/A   Partly Cloudy
6:53 PM 73.0 °F 66.0 °F 79% 29.97 in 10.0 mi NE 6.9 mph - N/A   Scattered Clouds
7:53 PM 70.0 °F 66.9 °F 90% 30.00 in 10.0 mi WNW 5.8 mph - N/A   Partly Cloudy
8:53 PM 69.1 °F 66.0 °F 90% 30.02 in 10.0 mi West 5.8 mph - N/A   Clear
9:53 PM 68.0 °F 64.9 °F 90% 30.02 in 10.0 mi West 6.9 mph - N/A   Clear
10:53 PM 66.9 °F 64.0 °F 90% 30.02 in 10.0 mi WNW 6.9 mph - N/A   Clear
11:42 PM 66.2 °F 62.6 °F 88% 30.02 in 10.0 mi West 8.1 mph - N/A   Clear
11:53 PM 66.0 °F 63.0 °F 90% 30.01 in 10.0 mi West 8.1 mph - N/A   Clear